Regional Weather Roundup
Issued by NWS

Home | Current Version | Previous Version | Text Only | Print | Product List | Glossary Off
Versions: 1 2 3 4 5 6 7 8 9 10 11 12 13 14 15 16 17 18 19 20 21 22 23 24 25 26 27 28 29 30 31 32 33 34 35 36 37 38 39 40 41 42 43 44 45 46 47 48 49 50

000
ASUS43 KLOT 281609
RWRIL

ILLINOIS REGIONAL WEATHER ROUNDUP
NATIONAL WEATHER SERVICE CHICAGO/ROMEOVILLE IL
1100 AM CDT WED JUN 28 2017

NOTE: "FAIR" INDICATES FEW OR NO CLOUDS BELOW 12,000 FEET WITH NO
SIGNIFICANT WEATHER AND/OR OBSTRUCTIONS TO VISIBILITY.

* THESE STATIONS ARE NOT UNDER NWS QUALITY CONTROL. THEY ALSO MAY NOT
  REPORT WEATHER SUCH AS PRECIPITATION OR FOG.

ILZ001-002-007-009-015-016-024-281700-
NORTHWEST ILLINOIS

CITY           SKY/WX    TMP DP  RH WIND       PRES   REMARKS
MOLINE         CLOUDY    73  66  78 S15G21    29.84F
STERLING*      CLOUDY    65  62  90 VRB7      29.91F
SAVANNA*       PTSUNNY   66  63  89 S15G24    29.86F
$$

ILZ003-004-008-010-011-017-018-281700-
NORTH CENTRAL ILLINOIS

CITY           SKY/WX    TMP DP  RH WIND       PRES   REMARKS
ROCKFORD       LGT RAIN  63  61  93 S14G21    29.90F
FREEPORT*      CLOUDY    64  62  94 S18G25    29.89F
ROCHELLE*      CLOUDY    62  61  97 S16G23    29.89F
DE KALB*       TSTM      60  58  94 S16       29.96F
PERU*          CLOUDY    62  59  92 SE10      29.97F
$$

ILZ005-006-012>014-019>023-281700-
NORTHEAST ILLINOIS

CITY           SKY/WX    TMP DP  RH WIND       PRES   REMARKS
CHICAGO-OHARE  LGT RAIN  65  56  72 S9        30.00R
CHICAGO-MIDWAY LGT RAIN  69  55  60 S13       30.01R
AURORA         RAIN      62  59  90 S12       29.99F FOG
LANSING*       CLOUDY    69  51  53 S14       30.02S
JOLIET*        LGT RAIN  68  57  68 SW3       30.02R
WAUKEGAN       CLOUDY    63  58  83 S12       29.97R
DUPAGE AIRPORT RAIN      61  59  93 S8        29.99R FOG
WHEELING       LGT RAIN  65  58  78 S12       30.01R
MORRIS*        CLOUDY    65  57  74 S3        30.00R
ROMEOVILLE*    LGT RAIN  65  54  67 SW8       30.01R
$$

LMZ740>746-281700-
SOUTHERN LAKE MICHIGAN

STATION/POSITION SKY/WX   TEMP    WIND        PRES    VSBY  WAVE
                          AIR SEA DIR/SP/G                  HT/PER
                          (F)     (DEG/KT/KT) (MB)    (MI)  (FT/S)
SOUTHERN BUOY              63 61  170/ 17/ 21 1015.3          4/ 5
WILMETTE HARBOR            66 63  210/ 12/ 16   N/A           3/ 4
HARRISON CRIB              69     190/ 22/ 24   N/A
BURNHAM HARBOR             69                   N/A
CALUMET HARBOR             70     170/ 12/ 16 1015.6R
BURNS HARBOR               72     180/ 14/ 21 1016.9F
MICHIGAN CITY              71     170/ 16/ 19   N/A
MICHIGAN CITY 6N           70 66  190/ 14/ 19   N/A           2/ 2
ST. JOSEPH                 70 68  190/ 16/ 19 1016.6          2/ 3
$$

ILZ025>027-034>036-040-047-049-050-058-095>099-281700-
WEST-CENTRAL ILLINOIS

CITY           SKY/WX    TMP DP  RH WIND       PRES   REMARKS
QUINCY         CLOUDY    75  65  70 S17G24    29.91F
GALESBURG*     CLOUDY    72  65  79 S13G18    29.91F
MACOMB*        CLOUDY    75  64  70 S16G22    29.94F
JACKSONVILLE*  CLOUDY    76  64  65 S13G24    29.97F
PITTSFIELD*    PTSUNNY   77  66  69 S15G22    29.96F
$$

ILZ028>032-037-038-041>044-048-051>054-059>061-281700-
CENTRAL ILLINOIS

CITY           SKY/WX    TMP DP  RH WIND       PRES   REMARKS
PONTIAC        CLOUDY    72  60  66 S15G22    29.99F
BLOOMINGTON    CLOUDY    72  60  66 S22       30.00F
DECATUR        CLOUDY    76  61  59 S15       30.02F
PEORIA         CLOUDY    70  64  81 S12       29.95F
LACON*         TSTM      64  63  94 S6        29.96S
LINCOLN*       CLOUDY    76  64  64 S14G20    29.99F
SPRINGFIELD    CLOUDY    78  65  63 S12G21    29.99F HX  80
TAYLORVILLE    CLOUDY    75  62  62 S13G23    30.01F
$$

ILZ033-039-045-046-055>057-062-063-281700-
EAST-CENTRAL ILLINOIS

CITY           SKY/WX    TMP DP  RH WIND       PRES   REMARKS
CHAMPAIGN      CLOUDY    76  57  51 S17       30.05F
RANTOUL*       CLOUDY    77  59  55 S18       30.04S
MATTOON        PTSUNNY   75  60  59 S15G22    30.05F
PARIS*         CLOUDY    76  60  58 S12G17    30.09S
$$

ILZ079-100>102-281700-
SOUTHWEST ILLINOIS

CITY           SKY/WX    TMP DP  RH WIND       PRES   REMARKS
ALTON          CLOUDY    77  66  69 S14       30.02F
BELLEVILLE     MOSUNNY   79  64  61 SW14      30.04F HX  81
CAHOKIA*       CLOUDY    80  63  55 S12G21    30.02F HX  81
SPARTA*        MOSUNNY   80  64  57 S14       30.06F HX  81
$$

ILZ064>066-069>071-074>076-080>082-084>086-088>090-092>094-281700-
SOUTH-CENTRAL ILLINOIS

CITY           SKY/WX    TMP DP  RH WIND       PRES   REMARKS
CARBONDALE     SUNNY     81  66  60 S12       30.07S HX  83
CAIRO*         SUNNY     80  64  57 S12       30.09R HX  82
EFFINGHAM*     CLOUDY    77  61  56 S12G17    30.08F
MARION         PTSUNNY   79  64  61 S12       30.09S HX  81
MT. VERNON     PTSUNNY   81  64  56 S15       30.07F HX  82
CENTRALIA*     MOSUNNY   80  64  59 S13       30.05F HX  81
SALEM*         MOSUNNY   79  62  54 S12       30.06F HX  80
METROPOLIS*    SUNNY     81  64  55 S9        30.10S HX  82
$$

ILZ067-068-072-073-078-083-087-091-281700-
SOUTHEAST ILLINOIS

CITY           SKY/WX    TMP DP  RH WIND       PRES   REMARKS
LAWRENCEVILLE  MOSUNNY   78  57  48 S16       30.10S
FLORA*         MOSUNNY   79  60  51 S13       30.08S HX  80
FAIRFIELD*     CLOUDY    80  61  52 S12       30.08F HX  81
HARRISBURG*    CLOUDY    80  64  58 S8        30.09S HX  81
ROBINSON*      MOSUNNY   77  58  51 S13G18    30.10S
CARMI*         SUNNY     78  61  55 S13       30.09F HX  80
$$

ABBREVIATIONS USED IN REMARKS
   TC - TEMPERATURE IN CELSIUS
  WCI - WIND CHILL INDEX
   HX - HEAT INDEX
  VSB - VISIBILITY
$$





USA.gov is the U.S. government's official web portal to all federal, state and local government web resources and services.